Home > Weather > Demmin > Past weeks

Flag for Germany Weather for the Past 2 Weeks in Demmin, Mecklenburg-Western Pomerania, Germany

Now
36 °F

Passing clouds.


Feels Like: 29 °F
Forecast: 32 / 39 °F
Wind: 8 mph from East

Location: Laage

Current Time: Feb 13, 2016 at 7:23:35 PM

Latest Report: Feb 13, 2016 at 6:20 PM


Visibility: N/A

Pressure: 29.36 "Hg

Humidity: 87%

Dew point: 32 °F

Location of DemminLocation

Historic Weather in Demmin — Graph

°F

Demmin Temperature Yesterday

Maximum temperature yesterday: 37 °F (at 12:20 AM)
Minimum temperature yesterday: 30 °F (at 11:20 PM)
Average temperature yesterday: 36 °F

High & Low Weather Summary for the Past Weeks

 TemperatureHumidityPressure
High54 °F (Feb 7, 1:20 PM)100% (Jan 30, 5:59 PM)30.18 "Hg (Jan 30, 5:59 PM)
Low28 °F (Feb 13, 12:20 AM)57% (Feb 2, 4:20 PM)28.77 "Hg (Feb 10, 12:20 AM)
Average41 °F86%29.59 "Hg
* Reported Jan 29 5:20 PM — Feb 13 5:20 PM, Demmin, Weather by CustomWeather, © 2016

Note: Actual official high and low records may vary slightly from our data, if they occured in-between our weather recording intervals... More about our weather records

Advertising

Demmin Weather History for the Previous 24 Hours

 ConditionsComfort  
Time TempWeatherWind HumidityBarometerVisibility
5:20 PM
Sat, Feb 13
36 °FPassing clouds.7 mph87%29.36 "HgN/A
4:20 PM41 °FPassing clouds.10 mph76%29.36 "HgN/A
3:20 PM41 °FPassing clouds.9 mph76%29.39 "HgN/A
2:20 PM41 °FScattered clouds.10 mph76%29.39 "HgN/A
1:20 PM41 °FScattered clouds.7 mph76%29.42 "HgN/A
12:20 PM41 °FPassing clouds.7 mph76%29.42 "HgN/A
11:20 AM37 °FScattered clouds.5 mph93%29.45 "Hg6 mi
10:20 AM34 °FFog.6 mph100%29.45 "Hg3 mi
9:20 AM32 °FIce fog.5 mph100%29.47 "Hg3 mi
8:20 AM32 °FIce fog.6 mph100%29.47 "Hg3 mi
7:20 AM30 °FIce fog.6 mph100%29.47 "Hg2 mi
7:01 AM30 °FIce fog.5 mph100%29.47 "Hg2 mi
6:20 AM30 °FPassing clouds.2 mph100%29.47 "Hg4 mi
5:20 AM32 °FPassing clouds.3 mph100%29.47 "Hg4 mi
4:20 AM32 °FPassing clouds.3 mph100%29.50 "Hg4 mi
3:20 AM32 °FLight rain. Passing clouds.1 mph100%29.50 "Hg4 mi
2:50 AM32 °FSprinkles. Passing clouds.No wind100%29.50 "Hg4 mi
2:20 AM32 °FSprinkles. Ice fog.1 mph100%29.50 "Hg2 mi
1:20 AM32 °FIce fog.2 mph93%29.50 "Hg2 mi
12:20 AM28 °FIce fog.1 mph100%29.50 "Hg0 mi
11:20 PM
Fri, Feb 12
30 °FIce fog.No wind100%29.50 "Hg0 mi
10:20 PM34 °FFog.3 mph93%29.53 "HgN/A
9:20 PM34 °FFog.3 mph100%29.53 "HgN/A
8:20 PM34 °FFog.3 mph100%29.53 "HgN/A
7:20 PM36 °FPassing clouds.2 mph93%29.53 "HgN/A
Weather by CustomWeather, © 2016

See weather overviewHow to use our weather pages